Regional Weather Roundup
Issued by NWS

Home | Current Version | Previous Version | Text Only | Print | Product List | Glossary On
Versions: 1 2 3 4 5 6 7 8 9 10 11 12 13 14 15 16 17 18 19 20 21 22 23 24 25 26 27 28 29 30 31 32 33 34 35 36 37 38 39 40 41 42 43 44 45 46 47 48 49 50
000
ASUS43 KIND 271309
RWRIN

WEATHER ROUNDUP FOR INDIANA
NATIONAL WEATHER SERVICE INDIANAPOLIS IN
900 AM EDT SAT AUG 27 2016

NOTE: "FAIR" INDICATES FEW OR NO CLOUDS BELOW 12,000 FEET WITH NO
SIGNIFICANT WEATHER AND/OR OBSTRUCTIONS TO VISIBILITY.

* - STATION DOES NOT REPORT WEATHER SUCH AS PRECIPITATION OR FOG.

+ - STATION NOT QUALITY CONTROLLED BY THE NATIONAL WEATHER SERVICE.
    USE DATA WITH CAUTION...ESPECIALLY DEWPOINT AND RELATIVE
    HUMIDITY OBSERVATIONS.

INZ001>003-010>013-019-020-271400-
NORTHWEST INDIANA

CITY           SKY/WX    TMP DP  RH WIND       PRES   REMARKS
GARY /AIRPORT/ RAIN      72  72 100 NE3       30.09F
KNOX *+        CLOUDY    70  59  68 CALM      30.12R
LA PORTE +     CLOUDY   N/A N/A N/A NE6       30.12S
MICHIGAN CITY+ CLOUDY    68  68 100 CALM      30.11S
MONTICELLO +   CLOUDY    72  67  84 CALM      30.08F
RENSSELAER +   TSTM      72  70  94 CALM      30.11S
VALPARAISO     RAIN      70  68  93 CALM      30.12R

$$

LMZ046-743>745-271400-
SOUTHERN LAKE MICHIGAN

STATION/POSITION TIME  TEMP    WIND        PRES    WAVE
                       AIR SEA DIR/SP/G            HT
                 (UTC) (F)     (DEG/KT/KT) (MB)    (FT)
BURNS HARBOR     1206   70      CALM  /  5 1020.0R
MICHIGAN CITY    1200   69      30/  6/  6   N/A
5NW MICH CITY    1300   71 75   70/  8/  8   N/A     1

$$

INZ004-005-014>016-021>024-271400-
NORTH CENTRAL INDIANA

CITY           SKY/WX    TMP DP  RH WIND       PRES   REMARKS
ELKHART        TSTM      72  66  83 SE5       30.13R
GOSHEN         CLOUDY    71  64  78 W18G25    30.13R THUNDER
LOGANSPORT +   CLOUDY    72  70  94 CALM      30.11F
PERU/GRISSOM   PTSUNNY   74  73  95 VRB3      30.10F
ROCHESTER +    CLOUDY    75  72  88 SW6       30.12R THUNDER
SOUTH BEND     CLOUDY    69  68  96 NW3       30.13S THUNDER FOG
WARSAW +       HVY RAIN  72  70  94 SW3       30.12R

$$

INZ006>009-017-018-025>027-271400-
NORTHEAST INDIANA

CITY           SKY/WX    TMP DP  RH WIND       PRES   REMARKS
ANGOLA *+      PTSUNNY   72  64  78 SE5       30.13S
AUBURN +       CLOUDY    70  61  73 E3        30.13S
FORT WAYNE     PTSUNNY   73  65  75 SE6       30.12R
HUNTINGTON +   PTSUNNY   73  69  89 SE6       30.11F

$$

INZ028-029-035-036-043>045-051>053-271400-
WEST CENTRAL INDIANA

CITY           SKY/WX    TMP DP  RH WIND       PRES   REMARKS
CRAWFORDSVL +  TSTM      69  69 100 CALM      30.12R
GREENCASTLE +  CLOUDY    72  72 100 E5        30.11S FOG
LAFAYETTE      TSTM      70  70 100 CALM      30.11R VSB 3/4
TERRE HAUTE    CLOUDY    73  71  93 CALM      30.12R

$$

INZ030>032-037>040-046>048-054>057-064-065-271400-
CENTRAL INDIANA

CITY           SKY/WX    TMP DP  RH WIND       PRES   REMARKS
ANDERSON       MOSUNNY   73  73 100 CALM      30.13  FOG
COLUMBUS       MOSUNNY   73  73 100 E3        30.12R
INDIANAPOLIS   CLOUDY    73  70  90 CALM      30.11R
-EAGLE CREEK   CLOUDY    73  70  90 E3        30.11R
KOKOMO *+      CLOUDY    73  72  94 S6        30.11S
MARION +       MOSUNNY   73  70  92 S6        30.13R FOG
MT COMFORT *+  CLOUDY    72  70  94 CALM      30.14R
SHELBYVILLE    CLOUDY    75  70  84 CALM      30.12R
ZIONSVILLE +   CLOUDY    71  70  97 CALM      30.13S

$$

INZ033-034-041-042-049-050-058-059-271400-
EAST CENTRAL INDIANA

CITY           SKY/WX    TMP DP  RH WIND       PRES   REMARKS
MUNCIE         PTSUNNY   76  72  87 SE5       30.12R

$$

INZ060-061-067>069-081>083-085>088-271400-
SOUTHWEST INDIANA

CITY           SKY/WX    TMP DP  RH WIND       PRES   REMARKS
EVANSVILLE     CLOUDY    74  71  91 CALM      30.10R
HUNTINGBURG *+ CLOUDY    73  70  88 NW3       30.10R
WASHINGTON +   CLOUDY    73  73 100 MISG      30.08F

$$

INZ062-063-066-070>080-084-089>092-271400-
SOUTH CENTRAL AND SOUTHEAST INDIANA

CITY           SKY/WX    TMP DP  RH WIND       PRES   REMARKS
BLOOMINGTON    CLOUDY    73  70  90 CALM      30.12R
MADISON *+     MOSUNNY   75  72  88 CALM      30.14R

$$





USA.gov is the U.S. government's official web portal to all federal, state and local government web resources and services.